Погода в Нове

Россия / Вологодская область     59˚05′00″N   38˚10′15″E
темп.,
°C
ветер,
м/с
пор.,
м/с
влажн.,
%
обл.,
%
осадки,
мм/ч
давл.,
гПа
погр.,
м
16 января, сб
сб1600:00−22˚ссв2597100 0.0 1015169
03:00−20˚ссв3696100 0.0 1015244
06:00−21˚ссв4996100 0.0 1013273
09:00−21˚ссв4895100 0.0 1013301
12:00−20˚ссв51095100 0.0 1012339
15:00−20˚ссв51193100 0.0 1011406
18:00−21˚с51295100 0.0 1010408
21:00−22˚с41196100 0.0 1011351
17 января, вс
вс1700:00−24˚с4109688 0.0 1012253
03:00−25˚с389876 0.0 1013186
06:00−26˚с359963 0.0 1013101
09:00−26˚с239837 0.0 101536
12:00−22˚ссз129639 0.0 101682
15:00−21˚з129428 0.0 101620
18:00−21˚зюз22973 0.0 101620
21:00−20˚юз239937 0.0 101636
18 января, пн
пн1800:00−17˚юз359796 0.1 1016158
03:00−16˚юз259794 0.3 1016158
06:00−15˚юз249799 0.1 1015112
09:00−14˚юз249799 0.2 1016133
12:00−12˚юз239695 0.1 1016190
15:00−13˚юз129790 0.2 101646
18:00−15˚ююз119888 0.1 101720
21:00−14˚ююз119792 0.3 101820
19 января, вт
вт1900:00−15˚ю119881 0.1 101820
03:00−15˚ю119785 0.1 101820
06:00−15˚ю119778 0.1 101820
09:00−16˚ю119786 0.2 101820
12:00−14˚ю239795 0.0 1019113
15:00−13˚ююз139696 0.1 1018151
18:00−16˚ю229880 0.1 101920
21:00−17˚ю239987 0.1 102034
20 января, ср
ср2000:00−16˚ююз239898 0.1 102069
03:00−16˚ююз239898 0.1 102166
06:00−16˚ююз239897 0.1 102179
09:00−16˚ююз369895 0.1 1021102
12:00−14˚ю479595 0.0 1021238
15:00−13˚ю489598 0.0 1020256
18:00−13˚ю51194100 0.0 1019285
21:00−12˚ю61392100 0.0 1017371